Newport, AR

3:34 PM CST on December 14, 2019 (GMT -0600)
Newport

Weather History for KM19 - October, 2019

Change the Weather History Date:

Wednesday, October 23, 2019

  Actual Average (KBVX) Record (KBVX)
Temperature  
Mean Temperature 57 °F -  
Max Temperature 72 °F 69 °F 85 °F (1956)
Min Temperature 42 °F 46 °F 23 °F (1952)
Degree Days  
Heating Degree Days 8    
Growing Degree Days 7 (Base 50)    
Moisture  
Dew Point 43 °F    
Average Humidity 65    
Maximum Humidity 92    
Minimum Humidity 31    
Precipitation  
Precipitation 0.00 in - - ()
Sea Level Pressure  
Sea Level Pressure 30.12 in    
Wind  
Wind Speed 9 mph ()    
Max Wind Speed 21 mph    
Max Gust Speed 28 mph    
Visibility 9.9 miles    
Events      
Averages and records for this station are not official NWS values.
T = Trace of Precipitation, MM = Missing Value Source: Averaged Metar Reports

Daily Weather History Graph

Daily Weather History Graph

Search for Another Location

Airport or City:

Astronomy

Oct. 23, 2019 Rise Set
Actual Time 7:18 AM CDT 6:19 PM CDT
Civil Twilight 6:52 AM CDT 6:45 PM CDT
Nautical Twilight 6:22 AM CDT 7:15 PM CDT
Astronomical Twilight 5:52 AM CDT 7:44 PM CDT
Moon 1:51 AM CDT (10/23) 3:56 PM CDT (10/23)
Length of Visible Light 11h 53m
Length of Day
11h 01m
Waning Crescent, 26% of the Moon is Illuminated
Oct 23
Waning Crescent
Oct 27
New
Nov 4
First Quarter
Nov 12
Full
Nov 19
Last Quarter

Hourly Weather History & Observations

Time (CDT) Temp. Windchill Dew Point Humidity Pressure Visibility Wind Dir Wind Speed Gust Speed Precip Events Conditions
12:56 AM 45.0 °F 41.8 °F 39.9 °F 82% 30.11 in 10.0 mi SSW 5.8 mph - 0.00 in   Clear
1:56 AM 44.1 °F 40.8 °F 39.9 °F 85% 30.11 in 10.0 mi SSW 5.8 mph - N/A   Clear
2:56 AM 43.0 °F 39.5 °F 39.9 °F 89% 30.11 in 10.0 mi South 5.8 mph - N/A   Clear
3:56 AM 43.0 °F 38.8 °F 39.9 °F 89% 30.12 in 10.0 mi SSW 6.9 mph - N/A   Clear
4:56 AM 43.0 °F 41.3 °F 39.9 °F 89% 30.11 in 10.0 mi South 3.5 mph - N/A   Clear
5:56 AM 42.1 °F 37.1 °F 39.9 °F 92% 30.12 in 10.0 mi South 8.1 mph - N/A   Clear
6:56 AM 42.1 °F 37.7 °F 39.9 °F 92% 30.12 in 10.0 mi South 6.9 mph - N/A   Clear
8:56 AM 50.0 °F - 44.1 °F 80% 30.16 in 10.0 mi South 10.4 mph - N/A   Partly Cloudy
9:56 AM 55.9 °F - 46.0 °F 69% 30.19 in 10.0 mi South 11.5 mph - N/A   Clear
10:56 AM 62.1 °F - 43.0 °F 50% 30.18 in 10.0 mi SSW 15.0 mph - N/A   Clear
11:56 AM 66.9 °F - 43.0 °F 42% 30.17 in 10.0 mi SSW 12.7 mph - N/A   Clear
12:56 PM 70.0 °F - 41.0 °F 35% 30.12 in 10.0 mi South 19.6 mph - N/A   Clear
1:56 PM 71.1 °F - 41.0 °F 34% 30.09 in 10.0 mi South 20.7 mph 26.5 mph N/A   Clear
2:56 PM 72.0 °F - 39.9 °F 31% 30.07 in 10.0 mi SSW 19.6 mph 27.6 mph N/A   Clear
3:56 PM 72.0 °F - 39.9 °F 31% 30.07 in 10.0 mi SSW 18.4 mph - N/A   Clear
4:56 PM 70.0 °F - 43.0 °F 38% 30.06 in 10.0 mi South 17.3 mph - N/A   Clear
5:56 PM 66.0 °F - 45.0 °F 47% 30.05 in 10.0 mi South 11.5 mph - N/A   Clear
6:56 PM 59.0 °F - 46.0 °F 62% 30.06 in 7.0 mi SSE 11.5 mph - N/A   Clear
7:56 PM 57.9 °F - 46.0 °F 65% 30.09 in 10.0 mi SSE 12.7 mph - N/A   Clear
8:56 PM 53.1 °F - 46.0 °F 77% 30.10 in 10.0 mi SE 9.2 mph - N/A   Clear
9:56 PM 52.0 °F - 45.0 °F 77% 30.13 in 10.0 mi South 8.1 mph - N/A   Clear
10:56 PM 53.1 °F - 46.0 °F 77% 30.15 in 10.0 mi South 9.2 mph - N/A   Partly Cloudy
11:56 PM 54.0 °F - 45.0 °F 72% 30.16 in 10.0 mi South 4.6 mph - N/A   Overcast